Погода в Вольгинском

Россия / Владимирская область     55°56′58″N   39°14′24″E
темп.,
°C
ветер,
м/с
пор.,
м/с
влажн.,
%
обл.,
%
осадки,
мм/ч
давл.,
гПа
погр.,
м
27 июля, вт
вт2700:00+17сз116795 0.0 102111
03:00+18зсз116376 0.0 102112
06:00+16сз22732 0.0 102159
09:00+24сз12465 0.0 1020499
12:00+27сз223417 0.0 10202431
15:00+28ссз233294 0.0 10192782
18:00+26с234420 0.0 1018890
21:00+19вюв11654 0.0 101811
28 июля, ср
ср2800:00+17ююз227252 0.1 101818
03:00+18ю2365100 0.0 101773
06:00+18юз117834 0.1 101636
09:00+23ююз235991 0.1 1015528
12:00+27ююз344595 0.0 10141556
15:00+23зюз5865100 0.3 1013761
18:00+21зюз3870100 0.0 1012679
21:00+18ююв3986100 0.1 1011531
29 июля, чт
чт2900:00+17ююв3999100 6.3 1008620
03:00+17зюз2599100 11.1 1007379
06:00+17з3798100 0.0 1006398
09:00+19зсз358386 0.1 1006682
12:00+22з3570100 0.1 1006961
15:00+26зсз2551100 0.3 10051465
18:00+22сз2467100 0.0 100586
21:00+18з228674 0.3 100517
30 июля, пт
пт3000:00+17з229243 1.1 100519
03:00+16зсз229419 1.8 100638
06:00+17зсз25920 0.0 1007119
09:00+23зсз23641 0.0 1007519
12:00+27з244486 0.0 10072227
15:00+24зюз1460100 0.0 1006126
18:00+22зюз2366100 0.0 100679
21:00+19юз117671 0.0 100713
31 июля, сб
сб3100:00+17зюз227748 0.0 100715
03:00+16ююз257998 0.0 100779
06:00+17ююз2779100 0.0 1006182
09:00+20юз3116699 0.0 1006594
12:00+20зюз3975100 0.1 1006580
15:00+25юз585540 0.3 10041543
18:00+21зюз38830 1.3 1004496
21:00+18юз23940 2.0 100552